TimeCST,TemperatureF,Dew PointF,Humidity,Sea Level PressureIn,VisibilityMPH,Wind Direction,Wind SpeedMPH,Gust SpeedMPH,PrecipitationIn,Events,Conditions,WindDirDegrees,DateUTC
12:52 AM,28.9,23.0,78,30.01,8.0,NNE,5.8,-,N/A,,Clear,30,2012-12-23 06:52:00
1:52 AM,27.0,21.9,81,30.01,7.0,North,3.5,-,N/A,,Clear,10,2012-12-23 07:52:00
2:52 AM,25.0,21.0,85,30.02,5.0,North,4.6,-,N/A,,Clear,10,2012-12-23 08:52:00
3:52 AM,24.1,19.9,84,30.01,5.0,North,3.5,-,N/A,,Clear,360,2012-12-23 09:52:00
4:52 AM,21.9,18.0,85,30.01,4.0,North,4.6,-,N/A,,Clear,10,2012-12-23 10:52:00
5:52 AM,21.0,17.1,85,30.02,4.0,Calm,Calm,-,N/A,,Clear,0,2012-12-23 11:52:00
6:30 AM,19.4,17.6,93,30.00,4.0,North,3.5,-,N/A,,Mostly Cloudy,360,2012-12-23 12:30:00
6:52 AM,19.9,17.1,89,30.05,4.0,North,3.5,-,N/A,,Overcast,350,2012-12-23 12:52:00
7:41 AM,19.4,15.8,86,30.01,3.0,Calm,Calm,-,N/A,,Partly Cloudy,0,2012-12-23 13:41:00
7:52 AM,18.0,15.1,88,30.04,2.5,Calm,Calm,-,N/A,,Partly Cloudy,0,2012-12-23 13:52:00
8:16 AM,19.4,15.8,86,30.02,3.0,Calm,Calm,-,N/A,,Clear,0,2012-12-23 14:16:00
8:52 AM,19.9,16.0,85,30.05,3.0,NNE,5.8,-,N/A,,Clear,30,2012-12-23 14:52:00
9:52 AM,21.0,16.0,81,30.06,4.0,NNE,5.8,-,N/A,,Haze,20,2012-12-23 15:52:00
10:52 AM,24.1,17.1,75,30.04,5.0,Variable,4.6,-,N/A,,Haze,0,2012-12-23 16:52:00
11:52 AM,26.1,18.0,71,30.02,5.0,North,4.6,-,N/A,,Haze,360,2012-12-23 17:52:00
12:52 PM,30.0,19.9,66,29.99,6.0,NW,4.6,-,N/A,,Haze,310,2012-12-23 18:52:00
1:52 PM,30.9,19.9,64,29.98,7.0,Variable,5.8,-,N/A,,Clear,0,2012-12-23 19:52:00
2:52 PM,30.0,19.9,66,29.98,7.0,North,8.1,-,N/A,,Clear,10,2012-12-23 20:52:00
3:52 PM,28.9,19.9,69,29.97,7.0,North,4.6,-,N/A,,Clear,360,2012-12-23 21:52:00
4:52 PM,28.0,19.9,72,29.99,7.0,North,3.5,-,N/A,,Clear,360,2012-12-23 22:52:00
5:52 PM,27.0,19.0,72,29.99,8.0,North,5.8,-,N/A,,Clear,360,2012-12-23 23:52:00
6:52 PM,27.0,19.0,72,30.03,7.0,Calm,Calm,-,N/A,,Clear,0,2012-12-24 00:52:00
7:52 PM,26.1,19.0,75,30.03,6.0,North,4.6,-,N/A,,Haze,350,2012-12-24 01:52:00
8:52 PM,25.0,18.0,75,30.04,7.0,NNW,4.6,-,N/A,,Clear,340,2012-12-24 02:52:00
9:52 PM,24.1,18.0,77,30.06,7.0,NNW,5.8,-,N/A,,Clear,340,2012-12-24 03:52:00
10:52 PM,21.0,16.0,81,30.06,7.0,Variable,3.5,-,N/A,,Clear,0,2012-12-24 04:52:00
11:52 PM,19.0,14.0,81,30.07,7.0,Variable,3.5,-,N/A,,Clear,0,2012-12-24 05:52:00